Volver al catálogo

ONEWEB-0583

ActivoComunicacionesPO
NORAD 54650·PAYLOAD·🇬🇧 United Kingdom

Lanzado Dec 8, 2022 desde Cape Canaveral Space Force Station

Loading…

Próximos Pases (próximas 24 horas)

TLE

ActualizadoSource: CelesTrak SupGP

Época: Sep 14, 2026, 14:57 UTC

1 54650C 22166J   26257.62341853 -.00000535  00000+0 -12959-2 0  2570
2 54650  87.9271 226.1926 0002201  85.6379 309.0501 13.21822889    10

Sigue ONEWEB-0583 en tiempo real con AllMySat

Download on the App Store